Tracking 32139 objects as of 16-Nov-2025
HD Live streaming from Space Station
objects crossing your sky now

STARLINK-34741

Track STARLINK-34741 now!
10-day predictions
STARLINK-34741 is classified as:


NORAD ID: 65097
Int'l Code: 2025-167V
Perigee: 480.9 km
Apogee: 483.3 km
Inclination: 53.2 °
Period: 94.1 minutes
Semi major axis: 6853 km
RCS: Unknown
Launch date: August 4, 2025
Source: United States (US)
Launch site: AIR FORCE EASTERN TEST RANGE (AFETR)
Your satellite tracking list
Your tracking list is empty




NASA's NSSDC Master Catalog

Two Line Element Set (TLE):
1 65097U 25167V   25319.67577640  .00069754  00000-0  23400-2 0  9992
2 65097  53.1589 196.2533 0001764 102.8845 257.2353 15.30271803 16021
Source of the keplerian elements: AFSPC